NOAA 1 [-] 1 04793U 70106A 10252.18499354 -.00000031 00000-0 10000-3 0 6367 2 04793 102.0977 256.3718 0031910 303.9464 55.8580 12.53941290819191 NOAA 2 [-] 1 06235U 72082A 10252.03103253 -.00000027 00000-0 10000-3 0 7354 2 06235 101.3919 256.7844 0003811 120.2850 239.8604 12.53009599733681 NOAA 3 [-] 1 06920U 73086A 10252.44943837 -.00000030 00000-0 10000-3 0 6279 2 06920 101.7006 262.8899 0006716 44.9974 315.1638 12.40308734667979 NOAA 4 [-] 1 07529U 74089A 10252.10645111 -.00000027 00000-0 10000-3 0 6384 2 07529 101.4134 264.8248 0008810 157.5240 202.6221 12.53058388638278 NOAA 5 [-] 1 09057U 76077A 10252.33609140 -.00000031 00000-0 10000-3 0 5157 2 09057 101.8560 287.0694 0009495 231.4767 128.5441 12.37803300542055 TIROS N [P] 1 11060U 78096A 10252.90371815 .00000019 00000-0 31811-4 0 5716 2 11060 98.9853 232.1126 0010539 171.9044 188.2305 14.17516808862669 NOAA 6 [P] 1 11416U 79057A 10252.34220937 .00000078 00000-0 44699-4 0 3884 2 11416 98.4031 258.2966 0010828 17.0746 343.0802 14.31999652625992 NOAA 7 [-] 1 12553U 81059A 10252.37821384 -.00000008 00000-0 17454-4 0 5096 2 12553 98.7098 200.4221 0012408 107.6971 252.5562 14.16791350509138 NOAA 8 [-] 1 13923U 83022A 10252.15421313 .00000023 00000-0 26724-4 0 4099 2 13923 98.5203 276.9539 0014760 231.2055 128.7821 14.27746980428915 NOAA 9 [P] 1 15427U 84123A 10251.98562542 .00000198 00000-0 12274-3 0 2661 2 15427 98.4788 231.8530 0014415 203.3779 156.6736 14.15363872328448 NOAA 10 [-] 1 16969U 86073A 10252.19829908 -.00000042 00000-0 94559-6 0 1965 2 16969 98.6522 280.3582 0011946 330.5460 29.5050 14.27425818247562 NOAA 11 [-] 1 19531U 88089A 10252.24896618 -.00000206 00000-0 -83931-4 0 2065 2 19531 98.7680 339.8361 0010726 270.2369 89.7590 14.14933340133026 NOAA 12 [B] 1 21263U 91032A 10252.29032122 .00000040 00000-0 35728-4 0 6990 2 21263 98.7655 265.4396 0011542 284.7682 75.2223 14.25652510 4388 NOAA 13 [-] 1 22739U 93050A 10252.31258060 .00000026 00000-0 38074-4 0 2352 2 22739 98.8345 331.8151 0010043 13.7111 346.4329 14.12246318880353 NOAA 14 [-] 1 23455U 94089A 10252.28908584 -.00000040 00000-0 21075-5 0 1888 2 23455 98.8741 332.4283 0009558 2.7478 357.3739 14.13792981809388 NOAA 15 [+] 1 25338U 98030A 10250.38503662 -.00000044 00000-0 -76097-7 0 5130 2 25338 98.6267 235.8669 0010405 190.4340 169.6651 14.24852569640450 NOAA 16 [+] 1 26536U 00055A 10252.09151794 -.00000001 00000-0 24764-4 0 9919 2 26536 99.1685 271.5327 0011371 101.6462 258.5958 14.12575755513678 NOAA 17 [+] 1 27453U 02032A 10252.37366264 .00000222 00000-0 11427-3 0 9854 2 27453 98.4233 299.3937 0010772 249.9216 110.0805 14.24188702426682 NOAA 18 [+] 1 28654U 05018A 10252.37844721 -.00000107 00000-0 -34259-4 0 4740 2 28654 98.9558 198.4246 0014250 172.4629 187.6757 14.11386097273315 NOAA 19 [S] 1 33591U 09005A 10252.31395311 .00000294 00000-0 18736-3 0 6698 2 33591 98.7925 192.6636 0014931 53.3141 306.9399 14.11083359 81778